This is the latest recevied weather packets stored in our database for station/object ac2ev. If no packets are shown the sender has not sent any weather packets the latest 10 day(s).
| Time | Temp. | Humidity | Pressure | Rain* | Wind** | Luminosity | Snow |
|---|---|---|---|---|---|---|---|
| 1778050051 | 7.22° C | 92% | 1008.2 hPa | 2.54 mm | - | - | - |
| 1778049751 | 7.22° C | 92% | 1008.3 hPa | 2.79 mm | - | - | - |
| 1778049450 | 7.22° C | 92% | 1008.5 hPa | 2.79 mm | - | - | - |
| 1778049151 | 7.22° C | 92% | 1008.4 hPa | 3.05 mm | - | - | - |
| 1778048850 | 7.78° C | 92% | 1008.5 hPa | 2.79 mm | - | - | - |
| 1778048551 | 7.78° C | 92% | 1008.6 hPa | 3.3 mm | - | - | - |
| 1778048250 | 7.78° C | 92% | 1009 hPa | 3.3 mm | - | - | - |
| 1778047950 | 7.78° C | 92% | 1008.9 hPa | 3.05 mm | - | - | - |
| 1778047651 | 7.78° C | 92% | 1008.9 hPa | 3.05 mm | - | - | - |
| 1778047351 | 7.78° C | 92% | 1008.8 hPa | 2.79 mm | - | - | - |
| 1778047050 | 7.78° C | 92% | 1009 hPa | 3.05 mm | - | - | - |
| 1778046750 | 7.78° C | 92% | 1008.8 hPa | 2.54 mm | - | - | - |
| 1778046450 | 7.78° C | 92% | 1008.9 hPa | 3.05 mm | - | - | - |
| 1778046151 | 7.78° C | 92% | 1008.8 hPa | 2.54 mm | - | - | - |
| 1778045848 | 7.78° C | 92% | 1009 hPa | 2.54 mm | - | - | - |
| 1778045542 | 7.78° C | 92% | 1008.7 hPa | 2.54 mm | - | - | - |
| 1778045237 | 7.78° C | 92% | 1008.7 hPa | 2.54 mm | - | - | - |
| 1778044934 | 8.33° C | 92% | 1008.9 hPa | 2.29 mm | - | - | - |
| 1778044632 | 8.33° C | 92% | 1009.1 hPa | 2.03 mm | - | - | - |
| 1778044330 | 8.33° C | 92% | 1008.9 hPa | 2.29 mm | - | - | - |
| 1778044028 | 8.33° C | 92% | 1009.1 hPa | 2.03 mm | - | - | - |
| 1778043726 | 8.33° C | 92% | 1009.1 hPa | 2.03 mm | - | - | - |
| 1778043424 | 8.33° C | 92% | 1009 hPa | 1.78 mm | - | - | - |
| 1778043124 | 8.33° C | 92% | 1008.9 hPa | 2.03 mm | - | - | - |
| 1778042825 | 8.33° C | 92% | 1008.9 hPa | 1.52 mm | - | - | - |
* Rain latest hour (hover to see other rain measurements)
** Current wind speed in m/s (hover to see current wind gust speed)